FW2285 Weather Reports


Display with metric or nautical units.
time (UTC)temp
F
wind
direction
speed
MPH
gust
MPH
rain 1hr
in
rain 24hr
in
rain mn
in
humidity
%
barometer
mb
20260504090112 56 100 0.0 0.0 0.00 0.00 0.00 54 1005.7
20260504081554 58 100 0.0 0.0 0.00 0.00 0.00 53 1005.8
20260504050022 68 29 0.0 4.0 0.00 0.00 0.00 37 1007.9
20260504044533 68 67 1.0 8.0 0.00 0.00 0.00 38 1009.1
20260504043023 69 86 3.0 7.0 0.00 0.00 0.00 36 1008.5
20260504041519 70 157 1.0 5.0 0.00 0.00 0.00 34 1008.2
20260504040018 69 265 0.0 3.0 0.00 0.00 0.00 37 1008.5
20260504034516 68 279 0.0 2.0 0.00 0.00 0.00 38 1008.8
20260504033016 67 279 0.0 1.0 0.00 0.00 0.00 42 1009.2
20260504031516 63 279 0.0 1.0 0.00 0.00 0.00 47 1009.1
20260504030021 63 279 0.0 0.0 0.00 0.00 0.00 49 1008.8
20260504024515 63 279 0.0 0.0 0.00 0.00 0.00 50 1008.7
20260504023016 63 279 0.0 0.0 0.00 0.00 0.00 50 1008.9
20260504021513 64 279 0.0 0.0 0.00 0.00 0.00 49 1008.8
20260504020016 64 279 0.0 0.0 0.00 0.00 0.00 47 1008.7
20260504014513 65 279 0.0 0.0 0.00 0.00 0.00 45 1008.6
20260504013013 66 279 0.0 0.0 0.00 0.00 0.00 43 1008.5
20260504011512 68 279 0.0 0.0 0.00 0.00 0.00 41 1008.5
20260504010011 71 279 0.0 0.0 0.00 0.00 0.00 37 1008.5
20260504004512 72 279 0.0 1.0 0.00 0.00 0.00 34 1008.5
20260504003008 73 279 0.0 0.0 0.00 0.00 0.00 35 1008.6
20260504001507 75 279 0.0 2.0 0.00 0.00 0.00 31 1008.8
20260504000006 77 278 0.0 2.0 0.00 0.00 0.00 26 1008.9
20260503234504 78 331 1.0 4.0 0.00 0.00 0.00 26 1009.1
20260503233003 79 315 1.0 7.0 0.00 0.00 0.00 25 1009.1
20260503231503 78 248 0.0 5.0 0.00 0.00 0.00 25 1009.2
20260503224600 80 355 1.0 6.0 0.00 0.00 0.00 25 1009.3
20260503223059 80 325 2.0 7.0 0.00 0.00 0.00 24 1009.4
20260503221602 80 312 1.0 6.0 0.00 0.00 0.00 25 1009.6
20260503220057 80 302 1.0 5.0 0.00 0.00 0.00 23 1009.7
20260503214602 80 275 3.0 7.0 0.00 0.00 0.00 24 1010.0
20260503213053 81 331 2.0 5.0 0.00 0.00 0.00 23 1010.1
20260503211554 80 240 0.0 7.0 0.00 0.00 0.00 30 1010.1
20260503210051 80 171 1.0 6.0 0.00 0.00 0.00 26 1010.4
20260503204555 79 266 2.0 8.0 0.00 0.00 0.00 29 1010.6
20260503203049 79 244 2.0 9.0 0.00 0.00 0.00 34 1010.9
20260503201542 79 175 2.0 5.0 0.00 0.00 0.00 30 1011.0
20260503200039 78 148 3.0 9.0 0.00 0.00 0.00 30 1011.2
20260503194539 78 82 1.0 10.0 0.00 0.00 0.00 29 1011.5
20260503193037 77 351 3.0 8.0 0.00 0.00 0.00 27 1011.7
20260503191534 77 254 2.0 10.0 0.00 0.00 0.00 28 1011.8
20260503190043 77 179 2.0 7.0 0.00 0.00 0.00 35 1012.1
20260503184530 76 247 2.0 5.0 0.00 0.00 0.00 34 1012.4
20260503183027 75 172 2.0 8.0 0.00 0.00 0.00 32 1012.6
20260503181525 75 261 2.0 8.0 0.00 0.00 0.00 33 1012.8
20260503180035 75 246 4.0 11.0 0.00 0.00 0.00 32 1013.1
20260503174520 74 204 4.0 11.0 0.00 0.00 0.00 31 1013.1
20260503173017 73 171 2.0 10.0 0.00 0.00 0.00 31 1013.2
20260503171528 73 256 2.0 11.0 0.00 0.00 0.00 35 1013.3